Regional Weather Roundup
Issued by NWS

Home | Current Version | Previous Version | Text Only | Print | Product List | Glossary Off
Versions: 1 2 3 4 5 6 7 8 9 10 11 12 13 14 15 16 17 18 19 20 21 22 23 24 25 26 27 28 29 30 31 32 33 34 35 36 37 38 39 40 41 42 43 44 45 46 47 48 49 50

513
ASUS45 KBOU 291907
RWRCO

WEATHER ROUNDUP FOR COLORADO
NATIONAL WEATHER SERVICE DENVER/BOULDER CO
100 PM MDT FRI JUL 29 2016

NOTE: "FAIR" INDICATES FEW OR NO CLOUDS BELOW 12000 FEET WITH NO
SIGNIFICANT WEATHER AND/OR OBSTRUCTIONS TO VISIBILITY.

COZ001>005-013-030-031-292000-
...NORTHWEST COLORADO...

CITY           SKY/WX    TMP DP  RH WIND       PRES   REMARKS
CRAIG          FAIR      86  30  13 N6        30.20F
HAYDEN         FAIR      81  34  18 CALM      30.23F
MEEKER         FAIR      85  37  18 CALM      30.21F
MOUNT WERNER   NOT AVBL
STEAMBOAT SPGS FAIR      81  33  17 S9        30.25F
WALDEN         FAIR      73  28  19 NW8       30.36F
$$

COZ006>008-011-292000-
...WEST CENTRAL VALLEYS...

CITY           SKY/WX    TMP DP  RH WIND       PRES   REMARKS
GRAND JUNCTION FAIR      94  30  10 VRB6      30.06F
MONTROSE       FAIR      91  29  11 W9        30.17F
EAGLE          SUNNY     84  30  14 CALM      30.22F
RIFLE          FAIR      91  30  11 CALM      30.12F
DELTA          NOT AVBL
NUCLA          NOT AVBL
$$

COZ017>023-064>068-292000-
...SOUTHWEST COLORADO...

CITY           SKY/WX    TMP DP  RH WIND       PRES   REMARKS
DURANGO        FAIR      90  35  14 MISG      30.21F
CORTEZ         FAIR      96  36  12 VRB5G20   30.14F
PAGOSA SPRINGS FAIR      86  28  12 SW10      30.29F
TELLURIDE      FAIR      80  31  16 N6        30.46F
WOLF CREEK PAS PTSUNNY   63  32  31 W7G16     30.69F
$$

COZ009-010-012-014-032>034-037-058>063-292000-
...CENTRAL COLORADO...

CITY           SKY/WX    TMP DP  RH WIND       PRES   REMARKS
ASPEN          FAIR      82  27  13 VRB7G21   30.32F
BUENA VISTA    FAIR      84  15   7 N8        30.28F
COPPER MTN     PTSUNNY   63  23  22 W18G25    30.67S
BERTHOUD PASS  FAIR      54  39  58 N15       30.69S
COTTONWOOD PAS FAIR      77 -13   3 SW6G23    30.46F
GUNNISON       FAIR      82  30  15 NW17G30   30.33F
KREMMLING      FAIR      82  21  10 NE7       30.29F
LEADVILLE      FAIR      72  14  11 NW23G29   30.47F
SALIDA         FAIR      87  28  12 SE6       30.32F
SUNLIGHT       FAIR      70  32  24 MISG      30.61S
WILKERSON PASS PTSUNNY   61  32  33 NE6       30.62S
$$

COZ069>075-292000-
...SAN LUIS VALLEY/SANGRE DE CRISTO MOUNTAINS...

CITY           SKY/WX    TMP DP  RH WIND       PRES   REMARKS
ALAMOSA        FAIR      85  32  15 N8        30.28F
LA VETA PASS   FAIR      73  50  43 NE7       30.52S
SAGUACHE       FAIR      86  23  10 NW21G31   30.29F
$$

COZ035-036-038>040-292000-
...NORTHERN COLORADO FRONT RANGE...

CITY           SKY/WX    TMP DP  RH WIND       PRES   REMARKS
DENVER INTL AP FAIR      82  56  40 E9        30.17F
DMNS CITY PARK   N/A     80  56  42 NE5       30.17F
AURORA         MOSUNNY   80  57  45 VRB1      30.19F
FRONT RANGE AP PTSUNNY   82  57  42 NE6       30.18F
ERIE MUNI ARPT PTSUNNY   79  55  43 NE7       30.17F
BOULDER MUN AP NOT AVBL
CENTENNIAL     FAIR      78  55  44 CALM      30.21F
BROOMFIELD     PTSUNNY   79  55  44 VRB6      30.21F
LONGMONT       NOT AVBL
$$

COZ041-046-047-076>085-087-088-292000-
...PIKES PEAK/PALMER DIVIDE AND SOUTHERN FOOTHILLS...

CITY           SKY/WX    TMP DP  RH WIND       PRES   REMARKS
COLO. SPRINGS  FAIR      74  58  57 VRB7      30.26S
A. F. ACADEMY  MOSUNNY   77  56  49 SE12G17   30.25F
SCHRIEVER AFB  NOT AVBL
ELLICOTT       NOT AVBL
FALCON         FAIR      75  54  47 S10       30.30F
FORT CARSON    FAIR      74  59  59 VRB3      30.22F
LIMON          FAIR      80  56  43 SE16      30.20F
MONUMENT HILL  FAIR      75  52  43 NE7       30.30F
TRINIDAD       NOT AVBL
$$

COZ042>045-048>051-090-091-292000-
...NORTHEAST COLORADO...

CITY           SKY/WX    TMP DP  RH WIND       PRES   REMARKS
GREELEY ARPT   FAIR      81  57  44 SE13      30.17F
AKRON          PTSUNNY   72  53  51 SE18      30.18F
BURLINGTON     FAIR      75  61  61 E14       30.17F
WRAY           NOT AVBL
STERLING       NOT AVBL
HOLYOKE        NOT AVBL
FORT MORGAN    NOT AVBL
$$

COZ086-089-092>099-292000-
...SOUTHEAST COLORADO...

CITY           SKY/WX    TMP DP  RH WIND       PRES   REMARKS
PUEBLO         FAIR      83  57  41 SE13      30.15F
LA JUNTA       FAIR      81  61  50 E16G22    30.13F
LAMAR          PTSUNNY   79  64  60 E12G22    30.11F
SPRINGFIELD      N/A     80  60  50 SE18      30.15F
$$




USA.gov is the U.S. government's official web portal to all federal, state and local government web resources and services.